Wind_Speed
4 4 1 5 7 3 3 5 9 2 4 6 7 9 2 2 5 8 11 11 9 10 11 15 15 14 12 10 6 1 3 8 11 10 10 12 13 13 10 10 12 13 13 14
5 1 5 1 4 3 2 6 4 5 6 7 7 10 9 8 8 14 17 14 10 6 3 9 15 14 13 7 5 3 5 6 9 10 10 11 13 11 10 11 11 11 12 14
3 4 3 3 3 4 4 4 6 7 9 7 7 6 4 2 4 1 4 3 2 4 5 6 10 14 13 9 8 7 6 6 8 9 10 10 10 10 9 12 12 12 12 14
2 1 4 4 4 6 3 6 13 19 4 3 1 0 2 0 6 4 3 2 2 3 3 8 14 14 15 14 11 10 6 7 7 8 9 9 10 11 11 13 13 14 13 14
2 1 5 4 4 2 2 6 19 7 7 6 6 4 2 1 5 6 6 6 5 7 7 8 14 19 16 17 16 10 6 8 7 7 8 8 9 10 11 12 13 13 12 13
2 3 4 1 3 1 10 19 11 5 4 4 3 3 3 1 3 4 5 10 7 7 7 10 13 12 14 14 11 8 7 9 7 7 8 10 10 11 14 13 12 13 15 15
5 5 1 4 3 4 6 4 1 2 5 0 5 4 5 4 3 4 7 8 6 5 6 7 12 14 16 12 12 9 9 10 9 9 11 12 12 13 12 11 12 14 14 13
3 6 6 11 4 2 4 4 4 4 3 2 5 2 4 4 1 1 1 4 5 6 3 5 16 20 14 14 14 12 11 12 9 11 11 11 12 12 12 11 11 13 12 12
4 3 2 8 4 3 4 5 3 7 3 3 2 1 6 3 2 2 4 0 4 6 8 9 10 18 18 18 17 14 12 10 8 10 12 9 10 9 10 10 11 13 11 10
1 5 6 3 7 7 5 2 1 3 4 3 1 0 3 6 4 3 4 6 7 7 7 8 18 13 14 17 16 13 10 11 10 10 8 8 8 6 5 7 9 9 8 5
3 4 6 5 5 4 5 4 5 5 3 4 4 2 5 3 3 3 7 8 8 9 11 6 11 14 14 15 15 12 12 12 11 9 9 6 5 4 4 6 5 5 2 7
5 5 3 2 4 2 4 3 3 4 0 2 3 2 5 4 5 4 6 7 7 5 4 6 13 14 15 15 14 14 14 13 12 9 9 7 5 7 8 9 9 8 6 8
2 2 3 6 6 8 6 5 4 5 3 2 3 3 7 8 7 7 7 7 6 5 2 4 8 13 16 18 17 16 16 14 13 9 9 9 9 10 11 11 13 11 9 6
8 3 5 4 4 2 4 6 5 6 4 1 2 4 12 13 10 11 15 12 5 3 4 6 9 18 21 21 19 19 17 14 16 12 10 11 12 11 12 11 12 11 10 9
6 6 4 6 9 10 6 9 11 7 1 4 1 4 6 12 11 13 12 12 10 8 8 7 7 15 21 21 21 20 18 16 17 16 14 10 11 11 12 12 11 11 9 8
4 3 5 7 11 13 10 7 9 9 6 5 4 3 2 6 6 11 9 11 10 11 12 11 14 16 20 22 26 22 20 20 17 17 13 10 10 8 8 10 12 9 8 8
4 4 3 3 3 6 7 4 8 5 5 1 3 4 4 4 4 5 7 8 10 11 11 10 14 14 12 14 17 16 26 23 19 18 15 12 11 10 10 11 11 12 10 8
5 4 2 2 3 2 3 8 9 12 7 7 7 8 5 4 4 2 5 4 7 8 9 14 18 22 22 15 14 13 27 26 23 21 18 14 12 10 10 9 7 7 9 9
4 4 3 3 3 4 7 4 3 1 5 6 4 2 4 2 4 3 4 4 4 7 16 16 21 24 25 24 21 23 23 23 24 24 20 18 13 11 11 9 9 11 8 9
7 6 4 2 4 5 1 4 9 9 2 3 2 1 1 2 3 4 7 9 11 14 18 20 20 21 25 26 25 20 22 24 23 26 21 15 14 13 12 12 11 10 12 9
4 4 3 2 2 2 4 8 4 3 4 2 2 3 2 2 5 6 9 9 14 16 20 21 21 21 22 26 26 22 22 21 24 23 23 19 15 15 15 17 16 17 12 7
2 2 1 2 2 3 4 3 5 5 2 3 4 5 4 7 8 5 6 8 13 14 17 19 20 22 23 24 25 22 19 23 19 19 18 19 16 17 17 17 17 15 13 12
2 3 4 3 4 5 2 6 4 6 4 3 3 5 7 7 5 6 5 9 12 14 14 16 18 20 23 21 22 23 27 26 20 15 14 13 16 17 21 21 18 16 15 12
2 3 4 3 2 5 5 3 4 6 5 5 5 6 5 6 7 7 8 12 12 15 15 15 13 16 19 21 18 20 23 23 22 15 7 7 17 22 17 17 18 15 12 15
2 2 4 1 0 3 2 5 5 7 7 5 6 7 8 6 8 8 7 14 18 20 20 18 18 16 19 19 18 20 19 21 21 18 13 13 14 16 18 12 14 19 16 15
1 5 3 4 6 5 5 5 6 6 5 8 4 8 10 7 9 9 12 15 16 18 20 16 15 17 19 19 15 19 17 16 17 18 18 15 10 14 14 14 12 11 16 11
Wind_Direction
2 65 220 238 214 224 191 121 108 83 207 86 92 113 111 236 247 204 144 237 223 227 192 181 172 177 192 206 209 319 342 350 353 348 355 354 351 350 344 343 334 336 335 336
37 171 267 220 214 243 104 113 84 48 105 94 112 82 66 77 90 131 178 188 215 212 176 150 183 196 213 222 239 263 306 329 345 345 342 340 336 335 327 332 330 329 324 332
127 230 98 53 347 345 301 135 171 136 85 71 137 67 75 66 25 222 170 193 187 211 173 158 217 216 229 236 248 264 285 324 336 334 331 334 334 329 330 330 332 333 328 329
144 260 185 173 172 161 284 115 128 140 126 105 91 73 41 345 331 303 239 248 232 245 180 180 222 228 238 242 254 259 271 303 306 320 317 326 328 325 324 323 324 330 334 333
243 92 32 31 316 120 268 99 150 151 97 115 12 86 272 90 301 273 241 261 250 243 214 217 233 231 237 236 246 238 255 288 298 310 305 316 318 325 327 327 329 338 336 337
150 69 58 241 297 294 111 85 72 46 70 60 295 117 313 243 283 288 230 239 226 230 230 256 252 248 233 233 223 222 252 287 286 299 307 305 303 319 330 338 342 336 328 334
19 35 328 355 48 354 96 90 23 318 29 173 348 57 238 288 245 237 245 242 230 223 211 188 204 218 215 210 210 222 245 275 276 295 305 310 317 309 316 322 326 319 328 334
79 1 13 323 27 296 21 121 153 248 165 193 353 24 272 228 307 351 329 242 209 205 206 217 216 219 214 214 214 226 242 271 279 296 312 327 323 313 296 303 314 310 315 325
129 80 287 24 11 40 325 49 151 108 64 83 266 312 329 19 245 38 19 68 221 198 214 223 229 218 214 212 213 224 240 276 285 300 307 323 326 321 301 293 308 312 312 316
128 123 19 10 19 14 75 300 173 24 132 132 324 309 247 335 348 206 215 248 236 234 247 232 222 210 215 214 216 222 242 271 273 291 306 315 326 338 341 325 316 319 322 328
72 78 332 51 18 307 341 8 50 107 88 144 168 259 215 266 297 205 243 248 231 232 231 224 219 227 220 221 220 232 243 263 260 273 293 301 325 315 318 321 310 313 324 326
1 102 81 119 295 283 115 67 91 110 182 45 106 276 330 238 257 235 242 257 253 252 291 226 229 226 225 228 228 232 245 261 255 273 283 274 276 285 294 295 278 293 333 325
152 97 95 332 354 4 31 349 95 100 77 24 107 256 358 1 322 358 339 335 326 9 306 267 259 245 243 236 232 233 250 257 255 255 271 268 272 276 287 296 287 282 290 330
89 80 143 150 175 133 34 16 17 90 82 158 22 26 359 2 11 10 2 357 43 115 270 281 252 251 245 243 239 236 252 256 258 256 263 275 279 275 281 299 292 282 293 298
96 81 73 71 96 86 64 61 50 58 134 107 175 75 357 16 34 22 352 358 1 8 18 349 340 322 289 275 239 239 251 258 258 267 276 269 292 290 280 278 290 282 283 294
15 120 106 80 91 82 66 39 50 36 30 59 77 72 24 23 61 31 354 12 339 350 343 334 320 290 272 258 259 251 251 255 263 264 270 281 292 294 273 294 268 277 272 294
84 120 84 174 132 113 48 41 89 80 37 39 29 354 323 328 27 23 323 345 346 344 338 332 323 333 333 327 296 282 281 266 259 263 268 273 276 280 278 291 291 267 264 283
112 89 80 142 48 52 142 109 117 91 50 45 58 38 4 28 135 25 345 324 330 332 328 323 325 328 329 298 272 260 264 273 272 268 267 265 274 281 284 280 271 276 262 263
60 115 89 120 93 107 175 184 288 233 57 27 80 47 352 54 31 316 318 308 293 306 329 333 343 347 348 336 316 285 270 273 275 273 270 268 267 273 265 259 271 264 267 262
54 64 106 117 143 200 112 307 333 133 106 335 142 209 289 3 36 263 275 309 306 325 337 336 336 351 353 349 338 306 273 261 258 261 273 277 269 263 267 262 278 269 274 275
11 6 71 49 92 85 333 333 1 58 242 265 218 208 240 223 207 243 313 321 330 326 330 339 339 346 351 356 353 332 323 287 273 283 278 278 272 261 255 254 270 267 272 256
114 108 77 67 124 236 328 360 93 210 246 212 226 233 253 253 277 290 295 312 323 332 339 342 340 341 349 355 356 355 340 321 311 297 289 286 282 273 269 268 265 250 251 262
35 168 157 155 196 217 300 136 185 171 191 233 241 254 237 273 275 280 271 289 303 315 325 337 341 341 349 351 359 349 352 357 344 305 304 338 325 293 273 258 256 251 263 263
70 143 102 89 247 179 165 212 193 205 220 226 233 227 231 253 270 264 274 290 299 309 319 317 327 341 341 349 347 355 358 352 358 358 2 346 355 339 301 278 262 250 266 273
203 74 131 11 343 118 188 232 215 230 240 244 248 248 259 276 277 266 283 305 311 312 321 319 326 331 341 339 344 350 346 355 352 351 345 353 336 337 342 309 281 270 272 276
184 162 144 207 208 156 233 242 217 219 260 266 323 330 357 343 298 324 329 348 351 350 353 339 346 348 348 347 354 356 353 346 349 341 342 339 340 353 342 348 330 263 270 268
Height
792 809 817 805 807 800 805 818 841 844 840 847 854 852 854 851 852 854 865 864 857 858 858 861 863 863 865 866 866 867 867 863 861 859 857 855 854 853 852 850 849 847 846 844
809 817 797 791 799 801 806 821 850 847 842 848 853 862 861 859 858 855 858 859 858 862 861 861 863 865 866 866 866 865 864 864 861 860 858 856 855 854 851 850 848 846 845 843
811 804 791 797 803 809 811 820 843 848 848 851 857 866 865 864 862 861 861 860 862 864 864 865 864 866 865 864 864 863 864 864 862 860 859 858 856 854 851 849 846 845 843 841
801 792 799 806 811 814 822 809 826 839 852 869 855 886 867 864 865 864 863 862 863 864 864 864 865 864 863 864 863 863 865 864 863 861 859 858 857 854 851 848 845 842 841 838
804 800 803 809 806 801 817 808 826 835 851 862 871 882 872 866 868 866 865 865 865 864 864 863 861 860 860 862 861 862 864 864 863 861 860 858 856 853 849 846 843 841 840 837
800 791 800 803 801 800 812 823 837 849 862 885 875 878 883 876 868 864 862 860 861 862 863 863 862 862 861 861 862 863 865 864 862 860 858 856 853 850 847 844 842 840 839 837
810 811 803 803 808 804 818 838 865 866 885 884 869 879 880 866 862 862 860 857 857 858 858 858 858 857 859 860 861 862 863 862 861 859 856 854 850 848 846 844 842 840 838 836
834 849 821 813 817 821 822 833 860 862 890 886 870 885 877 859 856 858 855 854 854 854 856 857 855 855 859 859 860 860 861 860 859 857 854 851 849 846 845 843 842 839 837 836
836 843 817 816 815 818 826 846 839 872 880 889 888 874 863 856 855 856 858 856 857 857 854 852 856 856 855 856 858 859 859 858 856 855 852 850 847 845 843 842 840 838 836 835
818 847 831 822 819 821 829 830 849 869 889 890 888 883 887 868 860 857 858 859 858 856 855 853 850 853 855 854 856 856 856 856 854 853 851 849 847 844 842 841 839 837 835 833
818 836 847 833 847 851 846 849 858 868 880 887 888 887 872 865 859 856 857 854 855 854 849 848 853 852 853 853 854 854 854 853 852 850 849 847 845 844 842 841 839 837 834 833
826 850 865 854 841 836 839 849 860 876 878 888 892 889 866 860 860 857 854 851 849 849 850 851 850 850 851 851 851 851 850 850 849 847 846 846 844 843 841 840 838 836 833 832
824 857 874 867 857 847 856 855 858 870 879 889 898 893 868 867 864 864 861 857 852 853 852 851 850 850 849 848 848 848 848 847 845 844 843 843 842 840 839 838 836 834 832 831
824 857 860 875 867 861 868 863 861 870 890 890 892 890 882 878 875 871 867 862 854 852 852 850 848 845 844 844 845 846 845 845 843 842 841 840 839 838 836 835 833 832 831 830
837 862 857 858 858 861 870 872 871 877 877 889 888 891 889 881 882 880 878 871 867 861 855 855 851 850 848 845 842 842 843 842 841 840 838 836 836 834 833 832 831 830 829 828
843 864 857 868 858 865 878 876 879 881 881 884 887 889 886 882 877 880 881 875 872 864 860 856 852 848 846 840 843 841 840 838 838 837 835 833 832 831 830 829 828 828 827 826
849 861 867 874 861 869 890 888 886 889 888 889 895 887 883 880 880 882 880 876 871 868 863 859 854 848 843 841 842 839 839 836 834 833 832 830 829 828 827 826 825 825 825 824
852 862 873 880 874 898 883 876 881 885 887 885 886 886 884 881 881 879 878 876 874 869 863 858 853 848 843 839 836 831 831 830 831 829 827 826 825 824 824 824 823 823 822 822
845 861 876 882 891 891 884 879 883 882 895 888 888 888 886 881 881 881 876 873 869 865 861 857 852 848 843 838 833 829 825 826 825 824 823 822 821 820 820 821 821 820 819 818
848 856 868 879 884 890 884 874 871 871 898 889 889 888 886 886 895 889 874 872 867 864 860 856 850 846 841 836 830 825 820 819 817 818 818 818 817 817 816 817 818 817 816 816
872 873 879 885 883 885 878 874 872 893 903 887 886 885 884 887 885 875 873 870 867 863 858 854 850 845 840 834 827 822 818 815 814 814 813 813 813 812 812 812 813 813 812 813
877 882 888 889 885 896 877 877 888 892 886 885 885 882 882 880 876 874 871 868 864 860 856 853 849 845 839 834 828 823 818 813 811 810 808 809 808 809 808 808 807 808 808 809
879 880 888 889 894 884 878 880 880 882 883 880 880 878 878 878 874 871 868 865 861 857 854 851 848 843 839 834 829 824 818 813 808 806 805 804 804 803 803 802 802 803 803 804
872 875 885 885 882 879 879 879 879 880 879 876 875 875 873 873 870 868 865 863 859 855 852 848 844 841 837 833 829 825 820 814 810 805 803 799 799 799 798 798 797 797 798 800
876 874 884 887 879 877 877 877 876 876 874 874 873 872 871 870 868 865 863 861 857 854 850 846 844 840 835 832 828 825 820 816 811 808 805 801 797 798 795 793 793 792 792 795
875 878 884 888 878 880 879 874 872 874 875 873 874 873 871 870 867 865 863 860 856 852 848 844 842 839 834 830 826 823 819 816 812 809 804 801 798 796 793 790 788 788 788 788